• In Deutschland
  • Länderverzeichnis
  • Für 7 Tage
  • Wassertemperatur
  • Satellitenkarten
  • Wetterkarte
  • Widgets
  • user-avatar
    Anmelden

    Stündliche Wetter Celle

    Heute, 23 Oktober, Montag

    Zeit Temperatur Niederschläge Wind Luftdruck Luftfeuchtigkeit
    00:00 +7°C° 0 mm 4 m/S 756 mmHg 93%
    01:00 +7°C° 0 mm 4 m/S 756 mmHg 94%
    02:00 +7°C° 0 mm 4 m/S 756 mmHg 93%
    03:00 +7°C° 0 mm 4 m/S 756 mmHg 93%
    04:00 +7°C° 0 mm 4 m/S 756 mmHg 93%
    05:00 +7°C° 0,2 mm 4 m/S 756 mmHg 93%
    06:00 +8°C° 0,2 mm 4 m/S 756 mmHg 93%
    07:00 +8°C° 0,2 mm 4 m/S 756 mmHg 93%
    08:00 +10°C° 0,9 mm 4 m/S 756 mmHg 92%
    09:00 +9°C° 0,9 mm 5 m/S 757 mmHg 91%
    10:00 +10°C° 0,9 mm 5 m/S 757 mmHg 89%
    11:00 +10°C° 0,8 mm 5 m/S 757 mmHg 88%
    12:00 +10°C° 0,8 mm 5 m/S 757 mmHg 87%
    13:00 +10°C° 0,8 mm 6 m/S 757 mmHg 85%
    14:00 +10°C° 0,6 mm 5 m/S 757 mmHg 86%
    15:00 +10°C° 0,6 mm 5 m/S 758 mmHg 87%
    16:00 +10°C° 0,6 mm 5 m/S 758 mmHg 88%
    17:00 +10°C° 0,1 mm 5 m/S 758 mmHg 90%
    18:00 +11°C° 0,1 mm 4 m/S 759 mmHg 91%
    19:00 +11°C° 0,1 mm 4 m/S 759 mmHg 93%
    20:00 +11°C° 0,1 mm 4 m/S 760 mmHg 93%
    21:00 +11°C° 0,1 mm 3 m/S 760 mmHg 94%
    22:00 +11°C° 0,1 mm 3 m/S 761 mmHg 95%
    23:00 +11°C° 0 mm 3 m/S 761 mmHg 95%

    Morgen, 24 Oktober, Dienstag

    Zeit Temperatur Niederschläge Wind Luftdruck Luftfeuchtigkeit
    00:00 +12°C° 0 mm 2 m/S 761 mmHg 95%
    01:00 +10°C° 0 mm 2 m/S 762 mmHg 95%
    02:00 +10°C° 0 mm 2 m/S 762 mmHg 95%
    03:00 +10°C° 0 mm 2 m/S 762 mmHg 95%
    04:00 +10°C° 0 mm 2 m/S 762 mmHg 95%
    05:00 +10°C° 0 mm 2 m/S 762 mmHg 95%
    06:00 +10°C° 0 mm 2 m/S 762 mmHg 95%
    07:00 +9°C° 0 mm 2 m/S 762 mmHg 95%
    08:00 +10°C° 0 mm 2 m/S 762 mmHg 93%
    09:00 +10°C° 0 mm 2 m/S 762 mmHg 91%
    10:00 +12°C° 0 mm 2 m/S 762 mmHg 89%
    11:00 +12°C° 0 mm 3 m/S 762 mmHg 88%
    12:00 +12°C° 0 mm 3 m/S 762 mmHg 87%
    13:00 +13°C° 0 mm 3 m/S 762 mmHg 86%
    14:00 +13°C° 0,1 mm 3 m/S 762 mmHg 88%
    15:00 +14°C° 0,1 mm 2 m/S 762 mmHg 90%
    16:00 +14°C° 0,1 mm 2 m/S 761 mmHg 92%
    17:00 +14°C° 0,2 mm 2 m/S 761 mmHg 93%
    18:00 +13°C° 0,2 mm 3 m/S 761 mmHg 94%
    19:00 +13°C° 0,2 mm 3 m/S 762 mmHg 95%
    20:00 +13°C° 0,2 mm 3 m/S 761 mmHg 95%
    21:00 +14°C° 0,2 mm 4 m/S 761 mmHg 94%
    22:00 +14°C° 0,2 mm 4 m/S 761 mmHg 94%
    23:00 +14°C° 0,2 mm 4 m/S 761 mmHg 93%

    übermorgen, 25 Oktober, Mittwoch

    Zeit Temperatur Niederschläge Wind Luftdruck Luftfeuchtigkeit
    00:00 +14°C° 0,2 mm 5 m/S 761 mmHg 93%
    01:00 +14°C° 0,2 mm 5 m/S 760 mmHg 92%
    02:00 +14°C° 0,1 mm 5 m/S 760 mmHg 92%
    03:00 +15°C° 0,1 mm 5 m/S 760 mmHg 91%
    04:00 +15°C° 0,1 mm 6 m/S 760 mmHg 90%
    05:00 +15°C° 0 mm 6 m/S 760 mmHg 90%
    06:00 +14°C° 0 mm 6 m/S 760 mmHg 89%
    07:00 +14°C° 0 mm 6 m/S 760 mmHg 89%
    08:00 +14°C° 0 mm 6 m/S 760 mmHg 88%
    09:00 +15°C° 0 mm 6 m/S 760 mmHg 88%
    10:00 +15°C° 0 mm 6 m/S 760 mmHg 87%
    11:00 +15°C° 0,1 mm 6 m/S 760 mmHg 87%
    12:00 +15°C° 0,1 mm 6 m/S 761 mmHg 87%
    13:00 +15°C° 0,1 mm 6 m/S 761 mmHg 86%
    14:00 +15°C° 0,3 mm 5 m/S 761 mmHg 87%
    15:00 +15°C° 0,3 mm 5 m/S 761 mmHg 88%
    16:00 +15°C° 0,3 mm 5 m/S 761 mmHg 89%
    17:00 +15°C° 0,3 mm 4 m/S 761 mmHg 90%
    18:00 +15°C° 0,3 mm 4 m/S 762 mmHg 91%
    19:00 +15°C° 0,3 mm 4 m/S 762 mmHg 92%
    20:00 +14°C° 0,1 mm 4 m/S 762 mmHg 92%
    21:00 +14°C° 0,1 mm 4 m/S 762 mmHg 93%
    22:00 +14°C° 0,1 mm 3 m/S 763 mmHg 94%
    23:00 +14°C° 0 mm 3 m/S 763 mmHg 94%

    26 Oktober, Donnerstag

    Zeit Temperatur Niederschläge Wind Luftdruck Luftfeuchtigkeit
    00:00 +14°C° 0 mm 3 m/S 763 mmHg 94%
    01:00 +14°C° 0 mm 3 m/S 763 mmHg 95%
    02:00 +14°C° 0 mm 3 m/S 762 mmHg 95%
    03:00 +14°C° 0 mm 3 m/S 762 mmHg 94%
    04:00 +13°C° 0 mm 3 m/S 762 mmHg 94%
    05:00 +13°C° 0 mm 4 m/S 761 mmHg 92%
    06:00 +13°C° 0 mm 4 m/S 761 mmHg 90%
    07:00 +13°C° 0 mm 5 m/S 761 mmHg 89%
    08:00 +13°C° 0 mm 5 m/S 761 mmHg 85%
    09:00 +13°C° 0 mm 5 m/S 760 mmHg 81%
    10:00 +14°C° 0 mm 6 m/S 760 mmHg 78%
    11:00 +14°C° 0 mm 6 m/S 760 mmHg 77%
    12:00 +15°C° 0 mm 6 m/S 760 mmHg 76%
    13:00 +15°C° 0 mm 6 m/S 760 mmHg 75%
    14:00 +15°C° 0,1 mm 5 m/S 760 mmHg 77%
    15:00 +15°C° 0,1 mm 5 m/S 760 mmHg 80%
    16:00 +15°C° 0,1 mm 5 m/S 760 mmHg 82%
    17:00 +14°C° 0,2 mm 4 m/S 760 mmHg 84%
    18:00 +14°C° 0,2 mm 4 m/S 760 mmHg 86%
    19:00 +14°C° 0,2 mm 4 m/S 760 mmHg 88%
    20:00 +13°C° 0,1 mm 4 m/S 759 mmHg 89%
    21:00 +13°C° 0,1 mm 4 m/S 759 mmHg 90%
    22:00 +13°C° 0,1 mm 4 m/S 759 mmHg 91%
    23:00 +13°C° 0,3 mm 4 m/S 758 mmHg 91%

    27 Oktober, Freitag

    Zeit Temperatur Niederschläge Wind Luftdruck Luftfeuchtigkeit
    00:00 +12°C° 0,3 mm 4 m/S 758 mmHg 91%
    01:00 +12°C° 0,3 mm 4 m/S 758 mmHg 92%
    02:00 +12°C° 1 mm 4 m/S 757 mmHg 91%
    03:00 +11°C° 1 mm 4 m/S 757 mmHg 90%
    04:00 +11°C° 1 mm 4 m/S 756 mmHg 90%
    05:00 +10°C° 1 mm 5 m/S 756 mmHg 90%
    06:00 +9°C° 1 mm 5 m/S 756 mmHg 90%
    07:00 +9°C° 1 mm 5 m/S 756 mmHg 89%
    08:00 +9°C° 0,2 mm 6 m/S 756 mmHg 85%
    09:00 +10°C° 0,2 mm 6 m/S 757 mmHg 81%
    10:00 +11°C° 0,2 mm 7 m/S 757 mmHg 77%
    11:00 +11°C° 0,2 mm 7 m/S 757 mmHg 76%
    12:00 +11°C° 0,2 mm 7 m/S 757 mmHg 74%
    13:00 +12°C° 0,2 mm 8 m/S 757 mmHg 72%
    14:00 +11°C° 0,1 mm 7 m/S 758 mmHg 73%
    15:00 +11°C° 0,1 mm 7 m/S 758 mmHg 73%
    16:00 +11°C° 0,1 mm 6 m/S 758 mmHg 73%
    17:00 +10°C° 0 mm 6 m/S 758 mmHg 76%
    18:00 +9°C° 0 mm 5 m/S 758 mmHg 79%
    19:00 +9°C° 0 mm 5 m/S 759 mmHg 81%
    20:00 +9°C° 0 mm 5 m/S 758 mmHg 82%
    21:00 +9°C° 0 mm 6 m/S 758 mmHg 82%
    22:00 +9°C° 0 mm 6 m/S 758 mmHg 82%
    23:00 +9°C° 0,1 mm 7 m/S 757 mmHg 81%

    28 Oktober, Samstag

    Zeit Temperatur Niederschläge Wind Luftdruck Luftfeuchtigkeit
    00:00 +9°C° 0,1 mm 7 m/S 756 mmHg 80%
    01:00 +9°C° 0,1 mm 8 m/S 755 mmHg 79%
    02:00 +9°C° 0,1 mm 8 m/S 754 mmHg 79%
    03:00 +8°C° 0,1 mm 9 m/S 753 mmHg 79%
    04:00 +8°C° 0,1 mm 10 m/S 752 mmHg 79%
    05:00 +8°C° 0,2 mm 10 m/S 751 mmHg 79%
    06:00 +8°C° 0,2 mm 10 m/S 750 mmHg 80%
    07:00 +8°C° 0,2 mm 11 m/S 748 mmHg 80%
    08:00 +8°C° 0,2 mm 11 m/S 748 mmHg 80%
    09:00 +8°C° 0,2 mm 11 m/S 747 mmHg 79%
    10:00 +8°C° 0,2 mm 11 m/S 747 mmHg 79%
    11:00 +9°C° 0,5 mm 11 m/S 746 mmHg 80%
    12:00 +9°C° 0,5 mm 11 m/S 746 mmHg 82%
    13:00 +9°C° 0,5 mm 11 m/S 746 mmHg 83%
    14:00 +9°C° 0,9 mm 11 m/S 745 mmHg 83%
    15:00 +9°C° 0,9 mm 11 m/S 745 mmHg 84%
    16:00 +11°C° 0,9 mm 10 m/S 744 mmHg 84%
    17:00 +9°C° 0,7 mm 10 m/S 744 mmHg 84%
    18:00 +10°C° 0,7 mm 9 m/S 744 mmHg 83%
    19:00 +10°C° 0,7 mm 8 m/S 744 mmHg 83%
    20:00 +9°C° 0,3 mm 8 m/S 744 mmHg 81%
    21:00 +9°C° 0,3 mm 7 m/S 744 mmHg 80%
    22:00 +9°C° 0,3 mm 7 m/S 744 mmHg 78%
    23:00 +8°C° 0,1 mm 7 m/S 744 mmHg 78%
    Mehr zeigen